SCP
0 0 0 0 0 0 0 0 0 0 0 0 0 0 0 0 0 0 0 0 0 0 0 0 0 0 0 0 0 0 0 0 -0 -0 0 0 0 0 0 0 0 0 0 0 0 0 0
0 0 0 0 0 0 0 0 0 0 0 0 0 0 0 0 0 0 0 0 -0 0 0 0 0 0 0 0 0 0 0 0 0 0 0 0 0 0 0 0 0 0 0 0 0 0 0
0 0 0 0 0 0 0 0 0 0 0 0 0 0 0 0 0 0 0 -0 -0 -0 0 0 0 0 0 0 0 0 0 -0 0 0 -0 0 0 0 0 0 0 0 0 0 0 0 0
0 0 0 0 0 0 0 0 0 0 0 0 0 0 0 0 0 0 0 -0 -0 -0 0 0 0 0 0 0 0 0 0 0 0 0 -0 -0 0 0 0 0 0 0 0 0 0 0 0
0 0 0 0 0 0 0 0 0 0 0 0 0 0 0 0 0 0 0 -0 -0 0 0 0 0 0 0 0 0 0 0 0 0 0 -0 -0 0 0 0 0 0 0 0 0 0 0 0
0 0 0 0 0 0 0 0 0 0 0 0 0 0 0 0 0 0 -0 -0 0 0 0 0 0 0 0 0 0 0 0 0 0 0 -0 -0 0 0 0 0 0 0 0 0 0 0 0
0 0 0 0 0 0 0 0 0 0 0 0 0 0 0 0 0 0 0 0 0 0 0 0 0 0 0 0 0 0 0 0 0 0 -0 -0 0 0 0 0 0 0 0 0 0 0 0
0 0 0 0 0 0 0 0 0 0 0 0 0 0 0 0 0 0 0 0 0 0 0 0 0 0 0 0 0 0 0 0 0 0 0 0 0 0 0 0 0 0 0 0 -0 0 0
0 0 0 0 0 0 0 0 0 0 0 0 0 0 0 0 0 0 0 0 0 0 0 0 0 0 0 0 0 -0 0 0 0 0 0 0 0 0 0 0 0 0 0 0 0 0 0
0 0 0 0 0 0 0 0 0 0 0 0 0 0 0 0 0 0 0 0 0 0 0 0 0 0 0 0 0 0 0 0 0 0 0 0 0 0 0 0 0 0 0 0 0 0 0
0 0 0 0 0 0 0 0 0 0 0 0 0 0 0 0 0 0 0 0 -0 0 0 0 0 0 0 0 0 0 0 0 0 0 0 0 0 0 0 0 0 0 0 0 0 0 0
0 0 0 0 0 0 0 0 0 0 0 0 0 0 0 0 0 0 0 -0 0 0 0 0 0 0 0 0 0 0 0 0 0 0 0 0 0 0 0 0 0 0 0 0 0 0 0
0 0 0 0 0 0 0 0 0 0 0 0 0 0 0 0 0 0 0 0 0 0 0 0 0 -0 0 0 0 0 0 0 0 0 0 0 0 0 0 0 0 0 0 0 0 0 0
0 0 0 0 0 0 0 0 0 0 0 0 0 0 0 0 0 0 0 0 0 0 0 0 0 0 0 0 0 0 0 0 0 0 0 0 0 0 0 0 0 0 0 0 0 0 0
-0 0 0 0 0 -0 -0 0 0 0 0 0 0 0 0 0 0 0 0 0 0 -0 -0 0 0 0 0 0 0 0 0 0 0 0 0 0 0 0 0 0 0 0 0 0 0 0 0
-0 0 0 0 0 -0 0 0 0 0 0 0 0 0 0 0 0 0 0 0 -0 -0 -0 -0 -0 0 0 0 0 0 0 0 0 0 0 0 0 0 0 0 0 0 0 0 0 0 0
0 -0 0 0 0 0 0 0 0 0 0 0 0 0 0 0 0 0 0 0 -0 -0 -0 -0 0 0 -0 0 0 0 0 0 0 0 0 0 0 0 0 0 0 0 0 0 0 0 0
0 -0 0 0 0 0 0 0 0 0 0 0 0 0 0 0 0 0 0 0 -0 -0 0 -0 -0 -0 0 -0 0 0 0 0 0 0 0 0 0 0 0 0 0 0 0 0 0 0 0
0 0 0 0 0 0 0 0 0 0 -0 0 0 0 0 0 0 0 0 0 -0 -0 -0 0 0 0 0 -0 0 0 0 0 0 0 0 0 0 0 0 0 0 0 0 0 0 0 0
0 0 0 0 0 0 0 0 0 0 -0 0 0 0 0 0 0 0 0 0 0 -0 -0 -0 -0 0 0 0 0 0 0 0 0 0 0 0 0 0 0 0 0 0 0 0 0 0 0
0 0 0 0 0 0 -0 0 -0 0 0 0 0 0 -0 0 0 0 0 0 0 -0 -0 -0 -0 -0 -0 -0 0 0 0 0 0 0 0 0 0 0 0 0 0 0 0 0 0 0 0
0 0 0 0 0 0 0 -0 0 0 0 0 0 0 0 0 0 0 0 0 0 -0 -0 -0 -0 -0 -0 0 0 0 0 0 0 0 0 0 0 0 0 0 0 0 0 0 0 0 0
0 0 0 0 0 0 0 0 0 0 0 0 0 0 0 -0 -0 0 0 0 0 -0 -0 -0 -0 -0 -0 0 0 0 0 0 0 0 0 0 0 0 0 0 0 0 0 0 0 0 0
0 0 0 0 0 0 0 0 0 0 0 0 0 0 0 -0 -0 0 0 0 -0 -0 -0 -0 -0 -0 -0 0 0 0 0 0 0 0 0 0 0 0 0 0 0 0 0 0 0 0 0
0 0 0 0 0 0 0 0 0 0 0 0 0 0 0 0 -0 -0 0 0 -0 -0 -0 -0 -0 -0 -0 0 -0 -0 0 0 0 0 0 0 0 0 0 0 0 0 0 0 0 0 0
0 -0 0 0 0 0 0 0 0 0 0 0 0 0 0 0 0 -0 -0 0 0 0 -0 -0 -0 -0 -0 -0 -0 -0 -0 -0 0 0 0 0 0 0 0 0 0 0 0 0 0 0 0
0 0 0 0 0 0 0 0 0 0 0 0 0 0 0 0 0 -0 0 0 0 -0 -0 -0 -0 -0 -0 -0 -0 -0 -0 -0 -0 0 0 0 0 0 0 0 0 0 0 0 0 0 0
0 0 0 0 0 0 0 0 0 0 0 0 0 0 0 0 0 -0 -0 0 0 -0 0 -0 -0 -0 -0 0 0 0 -0 -0 -0 0 0 0 0 0 0 0 0 0 0 0 0 0 0
0 0 0 0 0 0 0 0 0 0 0 0 0 0 0 0 0 -0 -0 -0 -0 0 -0 -0 0 -0 -0 0 0 0 0 -0 -0 -0 0 0 0 0 0 0 0 0 0 0 0 0 0
Wind_Speed_500mb
54 58 45 45 46 47 46 44 44 41 42 41 42 37 41 44 45 43 40 29 28 26 29 29 24 22 20 15 25 8 17 18 8 12 26 25 26 18 29 32 42 33 29 45 40 19 31
54 64 66 51 49 50 51 44 43 43 40 40 46 43 41 43 44 46 39 39 25 26 28 31 27 21 19 29 8 8 13 18 13 12 16 16 22 17 36 39 41 36 40 39 37 55 58
56 57 59 66 64 56 53 45 44 43 44 40 46 44 40 43 46 47 37 39 26 18 28 28 28 21 25 36 16 20 22 19 14 14 22 25 40 37 9 33 60 27 34 8 10 17 23
58 59 60 61 71 66 55 44 46 43 48 43 43 45 39 42 38 41 37 40 23 21 25 23 22 15 25 26 27 20 19 18 15 15 14 14 31 34 17 35 39 44 29 16 9 4 21
59 57 62 62 66 69 65 46 45 44 50 46 43 42 42 40 37 38 38 41 17 19 26 16 11 10 24 15 14 17 20 15 13 10 13 16 15 10 17 14 30 35 13 32 6 3 6
63 61 63 66 63 64 65 49 45 45 50 50 42 38 41 29 33 36 39 12 9 14 9 11 18 14 14 17 20 16 11 9 18 15 9 10 8 4 9 17 30 38 21 15 22 10 28
61 63 61 61 64 55 55 47 44 46 49 50 42 36 36 32 32 34 21 8 9 5 18 15 8 23 25 20 14 5 5 12 16 9 5 9 8 15 28 26 17 25 29 20 17 24 20
68 62 64 61 61 55 61 46 44 44 48 48 42 34 31 31 26 24 14 5 10 6 15 22 18 20 18 9 9 2 2 10 8 7 13 9 7 1 27 40 32 35 36 35 32 24 18
72 71 64 64 55 54 61 42 39 42 45 47 42 33 30 22 22 15 11 6 18 5 10 10 9 12 8 4 4 6 2 6 2 8 18 2 3 8 22 37 24 26 26 13 22 24 24
65 73 66 67 60 51 51 39 35 40 42 42 40 34 24 15 5 6 6 10 7 1 5 8 4 1 4 3 3 1 9 5 6 8 23 12 7 13 26 23 28 16 18 38 30 12 8
72 62 71 67 66 56 49 36 34 36 37 37 35 28 16 10 7 3 8 6 3 2 5 3 2 4 8 4 2 1 11 12 12 13 11 9 4 14 13 10 3 9 15 17 19 10 6
77 67 65 68 66 52 55 36 31 32 32 29 26 13 6 12 9 2 7 3 7 4 2 4 1 3 5 2 6 12 9 7 7 21 29 19 11 12 13 13 15 15 21 20 12 3 4
74 66 55 69 67 67 58 33 26 27 25 22 5 8 16 13 11 4 8 3 3 5 6 6 4 6 7 7 3 7 9 11 7 6 7 8 7 11 7 5 5 20 17 5 5 5 4
81 80 57 63 63 64 61 35 24 24 17 11 13 16 16 13 14 9 2 3 4 3 2 13 9 2 5 9 4 8 6 8 10 16 8 4 4 2 6 2 10 17 9 8 8 8 7
74 86 65 56 57 65 58 37 23 20 13 11 21 13 8 7 9 9 2 4 3 2 7 3 16 2 4 4 3 9 5 7 6 4 4 5 7 9 8 7 5 13 2 7 6 5 8
78 79 62 55 61 66 62 40 25 20 14 22 22 12 8 6 8 8 4 6 2 1 6 8 5 5 3 9 3 4 6 6 7 2 6 6 8 12 6 6 6 8 5 5 6 4 6
68 77 82 54 67 71 62 38 25 23 21 35 28 11 11 7 10 7 4 3 7 5 4 8 5 5 6 7 5 6 6 4 2 6 12 14 5 5 3 2 7 5 1 3 2 6 1
68 72 77 49 68 71 60 40 29 30 32 43 20 5 12 12 5 8 3 9 5 5 4 2 2 8 6 15 4 7 6 7 4 4 4 7 8 6 1 9 10 12 7 6 6 6 1
84 68 62 60 66 63 59 43 39 37 38 49 20 10 10 14 5 9 7 10 5 7 1 4 4 7 4 8 7 8 11 5 9 1 4 0 6 6 2 5 4 7 9 8 5 6 4
87 89 68 80 55 54 61 44 42 40 47 40 19 8 9 12 11 9 11 12 12 3 3 2 3 6 8 11 6 13 9 7 4 2 3 5 7 5 3 1 10 10 16 14 9 6 7
90 94 34 63 53 60 58 44 45 46 52 36 17 10 16 9 12 16 3 11 14 8 2 4 6 6 5 7 19 9 11 13 9 7 4 3 2 5 8 9 9 4 11 18 15 15 8
102 83 58 58 45 48 55 46 52 50 60 36 14 9 17 6 20 19 10 12 15 10 8 6 4 7 5 11 9 15 12 8 7 12 7 6 2 6 3 4 5 1 9 11 12 15 19
98 62 45 63 46 58 56 55 55 55 63 24 23 23 14 17 8 15 14 7 11 6 6 14 9 16 13 9 17 14 10 6 6 7 8 4 8 3 4 3 7 9 11 16 8 5 3
87 62 46 74 47 65 55 58 54 51 64 31 39 25 9 7 11 11 9 10 9 5 8 4 9 6 3 4 4 2 4 7 11 11 7 5 4 5 2 4 1 7 8 9 4 8 7
89 52 45 91 50 65 61 53 50 49 64 40 37 27 9 8 14 13 15 16 15 3 6 9 10 6 7 6 5 8 5 6 8 8 1 5 6 2 4 6 7 7 4 6 5 8 13
66 46 81 82 63 62 55 49 47 48 58 49 34 33 10 15 7 16 17 31 10 8 7 6 3 6 3 5 4 4 6 8 8 7 5 2 4 5 4 2 4 10 8 6 3 8 9
71 28 77 75 70 61 51 42 43 44 49 48 42 34 19 17 5 9 8 5 6 7 6 8 4 2 3 3 4 3 4 5 7 12 10 4 4 8 7 3 4 7 5 2 6 3 8
58 13 43 62 63 56 47 39 40 43 47 44 47 36 28 17 18 12 15 13 6 7 2 6 7 2 1 3 3 4 4 0 2 0 3 9 7 5 3 2 8 15 2 5 5 9 16
43 40 59 63 64 53 42 34 40 43 44 39 51 41 31 22 20 24 24 18 17 12 7 6 6 13 7 1 2 2 1 2 2 3 5 4 4 2 4 5 12 10 13 12 12 17 23
Wind_Direction_500mb
321 314 315 325 325 327 324 327 329 329 330 324 325 324 315 315 319 322 318 276 302 298 298 295 299 320 329 262 273 281 324 290 264 275 219 207 250 223 217 215 213 220 202 221 203 190 209
312 310 309 309 316 316 319 321 324 324 327 318 314 316 308 314 314 316 311 314 270 299 287 293 292 308 308 275 251 292 315 311 270 282 239 244 235 259 247 231 208 200 231 219 173 180 241
306 308 312 306 305 312 305 315 319 321 325 314 312 316 307 310 316 314 305 310 268 270 291 281 293 299 277 262 282 284 305 303 254 246 202 246 229 259 291 231 225 199 201 221 188 199 224
301 304 309 307 300 307 299 311 316 319 323 317 311 314 314 311 310 310 307 306 284 260 292 282 289 291 270 281 280 283 297 282 267 229 211 226 230 260 248 240 226 194 200 187 165 146 223
296 301 304 304 302 298 295 304 314 318 320 319 311 310 308 307 308 309 307 301 268 270 278 269 297 262 281 292 299 296 280 255 220 209 211 201 267 225 248 236 199 186 193 197 247 229 247
295 299 303 306 302 289 294 299 313 316 317 321 312 309 311 308 308 308 310 303 298 288 336 249 256 280 265 309 317 303 251 231 169 187 119 152 308 159 274 214 186 183 175 185 203 171 266
289 294 298 305 304 294 291 294 308 313 316 320 314 308 310 308 310 310 319 351 351 255 224 227 277 261 294 315 294 276 275 186 174 156 102 158 235 186 233 246 200 178 181 150 187 202 222
286 287 293 295 302 293 285 291 304 311 316 317 312 306 303 300 312 309 289 213 346 308 303 237 265 276 284 275 300 108 254 186 160 159 160 187 210 329 295 251 201 196 184 194 177 197 189
284 284 287 293 299 286 278 287 301 311 313 314 313 306 300 313 313 324 183 198 277 334 264 177 262 271 296 267 301 59 170 181 144 172 199 128 111 253 237 213 208 195 178 141 166 161 170
277 280 282 287 287 280 271 285 301 306 309 311 313 306 305 308 4 28 289 253 248 69 277 191 175 324 290 135 245 28 194 73 20 219 196 70 8 297 127 184 214 144 160 145 154 140 140
281 273 275 278 286 277 270 278 294 300 307 311 314 311 303 217 170 87 251 226 202 77 274 47 224 287 278 104 184 34 176 165 168 152 206 80 348 33 159 136 178 115 118 106 118 170 64
292 269 267 275 275 274 264 266 284 294 303 311 315 319 75 108 112 182 249 125 90 230 155 117 10 16 243 161 142 165 209 184 29 57 64 85 39 9 330 346 55 100 90 75 67 109 49
293 290 257 268 271 266 265 256 272 286 297 310 296 99 119 145 121 236 124 91 232 301 211 156 186 359 322 41 99 161 124 67 55 123 57 56 30 323 275 72 111 121 125 109 44 36 199
288 287 277 258 262 255 252 245 257 270 283 292 167 133 121 154 148 156 151 240 260 187 27 94 104 35 3 13 49 85 117 63 7 51 84 96 54 26 230 71 167 172 207 127 146 169 164
295 284 292 248 251 249 236 231 239 251 251 209 168 149 144 192 136 126 271 250 109 30 341 61 127 192 84 19 314 40 57 111 167 114 41 121 79 233 185 320 22 222 349 348 37 330 99
289 283 295 257 245 243 237 219 228 227 210 183 159 134 172 198 122 145 248 311 329 25 335 301 22 31 101 131 98 290 26 333 124 321 210 73 77 353 87 318 40 55 147 74 346 109 138
308 280 298 285 241 240 226 207 213 206 186 172 151 175 222 201 106 227 242 146 256 145 287 342 88 99 94 152 228 173 43 298 266 156 302 156 103 336 300 284 168 135 12 278 65 74 102
310 303 299 274 231 236 215 205 198 194 177 170 162 178 201 150 176 235 255 172 250 160 177 271 295 128 153 164 108 64 123 30 143 200 141 41 85 117 358 326 328 310 217 225 115 258 28
310 317 301 227 226 226 214 204 186 193 185 162 166 128 183 164 193 199 140 167 274 187 90 211 128 340 178 138 121 126 94 140 125 303 48 227 121 102 90 319 243 249 228 238 259 66 230
315 323 321 212 224 224 207 194 182 189 178 160 153 144 158 196 259 288 172 177 159 171 114 306 92 228 224 130 145 127 121 150 165 14 4 339 212 80 172 90 148 191 207 210 170 119 205
319 327 247 211 220 214 204 181 185 185 178 171 190 162 176 181 220 220 144 189 170 158 165 257 168 328 354 131 122 104 106 139 238 154 224 254 92 77 49 39 44 52 206 217 193 207 197
316 320 215 210 220 219 199 178 187 182 180 184 177 157 172 180 199 208 177 219 177 121 351 152 117 179 301 75 10 125 151 174 177 188 211 149 151 108 301 65 57 59 284 283 245 210 229
316 317 243 212 220 216 185 181 186 185 185 182 195 165 169 144 193 192 181 168 122 112 62 27 344 103 87 57 22 38 37 71 66 173 178 148 134 114 112 46 348 304 219 216 215 263 330
321 347 214 213 215 203 179 181 189 189 189 184 185 166 185 158 197 178 136 107 131 56 151 48 337 92 95 81 80 93 123 107 96 22 27 144 114 88 218 1 244 182 52 29 34 84 16
316 293 213 218 205 182 175 176 191 189 192 194 174 165 188 130 145 111 137 113 130 65 86 114 50 61 121 170 185 140 153 166 97 47 118 349 176 127 142 214 139 125 166 142 173 81 36
333 270 193 218 194 176 170 179 192 192 193 198 184 169 126 122 47 155 143 159 140 171 174 133 58 58 123 250 236 198 177 160 155 134 348 307 329 156 188 266 300 106 87 22 342 173 68
333 208 200 210 183 166 162 185 192 189 188 193 182 164 136 101 53 86 108 167 89 150 108 124 101 108 358 249 226 235 109 352 173 176 176 182 233 194 224 262 338 24 46 182 166 177 46
318 255 195 204 174 166 166 182 186 179 177 177 172 164 152 104 71 92 98 108 103 15 128 123 116 162 350 254 84 337 73 50 286 260 162 164 155 190 162 293 295 356 335 10 60 53 8
304 237 190 187 168 168 172 182 182 173 171 172 164 165 157 112 116 108 99 106 115 100 92 64 67 39 54 103 100 42 36 319 74 211 2 31 47 56 66 169 130 71 91 121 44 15 350
Wind_Speed_850mb
54 58 45 45 46 47 46 44 44 41 42 41 42 37 41 44 45 43 40 29 28 26 29 29 24 22 20 15 25 8 17 18 8 12 26 25 26 18 29 32 42 33 29 45 40 19 31
54 64 66 51 49 50 51 44 43 43 40 40 46 43 41 43 44 46 39 39 25 26 28 31 27 21 19 29 8 8 13 18 13 12 16 16 22 17 36 39 41 36 40 39 37 55 58
56 57 59 66 64 56 53 45 44 43 44 40 46 44 40 43 46 47 37 39 26 18 28 28 28 21 25 36 16 20 22 19 14 14 22 25 40 37 9 33 60 27 34 8 10 17 23
58 59 60 61 71 66 55 44 46 43 48 43 43 45 39 42 38 41 37 40 23 21 25 23 22 15 25 26 27 20 19 18 15 15 14 14 31 34 17 35 39 44 29 16 9 4 21
59 57 62 62 66 69 65 46 45 44 50 46 43 42 42 40 37 38 38 41 17 19 26 16 11 10 24 15 14 17 20 15 13 10 13 16 15 10 17 14 30 35 13 32 6 3 6
63 61 63 66 63 64 65 49 45 45 50 50 42 38 41 29 33 36 39 12 9 14 9 11 18 14 14 17 20 16 11 9 18 15 9 10 8 4 9 17 30 38 21 15 22 10 28
61 63 61 61 64 55 55 47 44 46 49 50 42 36 36 32 32 34 21 8 9 5 18 15 8 23 25 20 14 5 5 12 16 9 5 9 8 15 28 26 17 25 29 20 17 24 20
68 62 64 61 61 55 61 46 44 44 48 48 42 34 31 31 26 24 14 5 10 6 15 22 18 20 18 9 9 2 2 10 8 7 13 9 7 1 27 40 32 35 36 35 32 24 18
72 71 64 64 55 54 61 42 39 42 45 47 42 33 30 22 22 15 11 6 18 5 10 10 9 12 8 4 4 6 2 6 2 8 18 2 3 8 22 37 24 26 26 13 22 24 24
65 73 66 67 60 51 51 39 35 40 42 42 40 34 24 15 5 6 6 10 7 1 5 8 4 1 4 3 3 1 9 5 6 8 23 12 7 13 26 23 28 16 18 38 30 12 8
72 62 71 67 66 56 49 36 34 36 37 37 35 28 16 10 7 3 8 6 3 2 5 3 2 4 8 4 2 1 11 12 12 13 11 9 4 14 13 10 3 9 15 17 19 10 6
77 67 65 68 66 52 55 36 31 32 32 29 26 13 6 12 9 2 7 3 7 4 2 4 1 3 5 2 6 12 9 7 7 21 29 19 11 12 13 13 15 15 21 20 12 3 4
74 66 55 69 67 67 58 33 26 27 25 22 5 8 16 13 11 4 8 3 3 5 6 6 4 6 7 7 3 7 9 11 7 6 7 8 7 11 7 5 5 20 17 5 5 5 4
81 80 57 63 63 64 61 35 24 24 17 11 13 16 16 13 14 9 2 3 4 3 2 13 9 2 5 9 4 8 6 8 10 16 8 4 4 2 6 2 10 17 9 8 8 8 7
74 86 65 56 57 65 58 37 23 20 13 11 21 13 8 7 9 9 2 4 3 2 7 3 16 2 4 4 3 9 5 7 6 4 4 5 7 9 8 7 5 13 2 7 6 5 8
78 79 62 55 61 66 62 40 25 20 14 22 22 12 8 6 8 8 4 6 2 1 6 8 5 5 3 9 3 4 6 6 7 2 6 6 8 12 6 6 6 8 5 5 6 4 6
68 77 82 54 67 71 62 38 25 23 21 35 28 11 11 7 10 7 4 3 7 5 4 8 5 5 6 7 5 6 6 4 2 6 12 14 5 5 3 2 7 5 1 3 2 6 1
68 72 77 49 68 71 60 40 29 30 32 43 20 5 12 12 5 8 3 9 5 5 4 2 2 8 6 15 4 7 6 7 4 4 4 7 8 6 1 9 10 12 7 6 6 6 1
84 68 62 60 66 63 59 43 39 37 38 49 20 10 10 14 5 9 7 10 5 7 1 4 4 7 4 8 7 8 11 5 9 1 4 0 6 6 2 5 4 7 9 8 5 6 4
87 89 68 80 55 54 61 44 42 40 47 40 19 8 9 12 11 9 11 12 12 3 3 2 3 6 8 11 6 13 9 7 4 2 3 5 7 5 3 1 10 10 16 14 9 6 7
90 94 34 63 53 60 58 44 45 46 52 36 17 10 16 9 12 16 3 11 14 8 2 4 6 6 5 7 19 9 11 13 9 7 4 3 2 5 8 9 9 4 11 18 15 15 8
102 83 58 58 45 48 55 46 52 50 60 36 14 9 17 6 20 19 10 12 15 10 8 6 4 7 5 11 9 15 12 8 7 12 7 6 2 6 3 4 5 1 9 11 12 15 19
98 62 45 63 46 58 56 55 55 55 63 24 23 23 14 17 8 15 14 7 11 6 6 14 9 16 13 9 17 14 10 6 6 7 8 4 8 3 4 3 7 9 11 16 8 5 3
87 62 46 74 47 65 55 58 54 51 64 31 39 25 9 7 11 11 9 10 9 5 8 4 9 6 3 4 4 2 4 7 11 11 7 5 4 5 2 4 1 7 8 9 4 8 7
89 52 45 91 50 65 61 53 50 49 64 40 37 27 9 8 14 13 15 16 15 3 6 9 10 6 7 6 5 8 5 6 8 8 1 5 6 2 4 6 7 7 4 6 5 8 13
66 46 81 82 63 62 55 49 47 48 58 49 34 33 10 15 7 16 17 31 10 8 7 6 3 6 3 5 4 4 6 8 8 7 5 2 4 5 4 2 4 10 8 6 3 8 9
71 28 77 75 70 61 51 42 43 44 49 48 42 34 19 17 5 9 8 5 6 7 6 8 4 2 3 3 4 3 4 5 7 12 10 4 4 8 7 3 4 7 5 2 6 3 8
58 13 43 62 63 56 47 39 40 43 47 44 47 36 28 17 18 12 15 13 6 7 2 6 7 2 1 3 3 4 4 0 2 0 3 9 7 5 3 2 8 15 2 5 5 9 16
43 40 59 63 64 53 42 34 40 43 44 39 51 41 31 22 20 24 24 18 17 12 7 6 6 13 7 1 2 2 1 2 2 3 5 4 4 2 4 5 12 10 13 12 12 17 23
Wind_Direction_850mb
321 314 315 325 325 327 324 327 329 329 330 324 325 324 315 315 319 322 318 276 302 298 298 295 299 320 329 262 273 281 324 290 264 275 219 207 250 223 217 215 213 220 202 221 203 190 209
312 310 309 309 316 316 319 321 324 324 327 318 314 316 308 314 314 316 311 314 270 299 287 293 292 308 308 275 251 292 315 311 270 282 239 244 235 259 247 231 208 200 231 219 173 180 241
306 308 312 306 305 312 305 315 319 321 325 314 312 316 307 310 316 314 305 310 268 270 291 281 293 299 277 262 282 284 305 303 254 246 202 246 229 259 291 231 225 199 201 221 188 199 224
301 304 309 307 300 307 299 311 316 319 323 317 311 314 314 311 310 310 307 306 284 260 292 282 289 291 270 281 280 283 297 282 267 229 211 226 230 260 248 240 226 194 200 187 165 146 223
296 301 304 304 302 298 295 304 314 318 320 319 311 310 308 307 308 309 307 301 268 270 278 269 297 262 281 292 299 296 280 255 220 209 211 201 267 225 248 236 199 186 193 197 247 229 247
295 299 303 306 302 289 294 299 313 316 317 321 312 309 311 308 308 308 310 303 298 288 336 249 256 280 265 309 317 303 251 231 169 187 119 152 308 159 274 214 186 183 175 185 203 171 266
289 294 298 305 304 294 291 294 308 313 316 320 314 308 310 308 310 310 319 351 351 255 224 227 277 261 294 315 294 276 275 186 174 156 102 158 235 186 233 246 200 178 181 150 187 202 222
286 287 293 295 302 293 285 291 304 311 316 317 312 306 303 300 312 309 289 213 346 308 303 237 265 276 284 275 300 108 254 186 160 159 160 187 210 329 295 251 201 196 184 194 177 197 189
284 284 287 293 299 286 278 287 301 311 313 314 313 306 300 313 313 324 183 198 277 334 264 177 262 271 296 267 301 59 170 181 144 172 199 128 111 253 237 213 208 195 178 141 166 161 170
277 280 282 287 287 280 271 285 301 306 309 311 313 306 305 308 4 28 289 253 248 69 277 191 175 324 290 135 245 28 194 73 20 219 196 70 8 297 127 184 214 144 160 145 154 140 140
281 273 275 278 286 277 270 278 294 300 307 311 314 311 303 217 170 87 251 226 202 77 274 47 224 287 278 104 184 34 176 165 168 152 206 80 348 33 159 136 178 115 118 106 118 170 64
292 269 267 275 275 274 264 266 284 294 303 311 315 319 75 108 112 182 249 125 90 230 155 117 10 16 243 161 142 165 209 184 29 57 64 85 39 9 330 346 55 100 90 75 67 109 49
293 290 257 268 271 266 265 256 272 286 297 310 296 99 119 145 121 236 124 91 232 301 211 156 186 359 322 41 99 161 124 67 55 123 57 56 30 323 275 72 111 121 125 109 44 36 199
288 287 277 258 262 255 252 245 257 270 283 292 167 133 121 154 148 156 151 240 260 187 27 94 104 35 3 13 49 85 117 63 7 51 84 96 54 26 230 71 167 172 207 127 146 169 164
295 284 292 248 251 249 236 231 239 251 251 209 168 149 144 192 136 126 271 250 109 30 341 61 127 192 84 19 314 40 57 111 167 114 41 121 79 233 185 320 22 222 349 348 37 330 99
289 283 295 257 245 243 237 219 228 227 210 183 159 134 172 198 122 145 248 311 329 25 335 301 22 31 101 131 98 290 26 333 124 321 210 73 77 353 87 318 40 55 147 74 346 109 138
308 280 298 285 241 240 226 207 213 206 186 172 151 175 222 201 106 227 242 146 256 145 287 342 88 99 94 152 228 173 43 298 266 156 302 156 103 336 300 284 168 135 12 278 65 74 102
310 303 299 274 231 236 215 205 198 194 177 170 162 178 201 150 176 235 255 172 250 160 177 271 295 128 153 164 108 64 123 30 143 200 141 41 85 117 358 326 328 310 217 225 115 258 28
310 317 301 227 226 226 214 204 186 193 185 162 166 128 183 164 193 199 140 167 274 187 90 211 128 340 178 138 121 126 94 140 125 303 48 227 121 102 90 319 243 249 228 238 259 66 230
315 323 321 212 224 224 207 194 182 189 178 160 153 144 158 196 259 288 172 177 159 171 114 306 92 228 224 130 145 127 121 150 165 14 4 339 212 80 172 90 148 191 207 210 170 119 205
319 327 247 211 220 214 204 181 185 185 178 171 190 162 176 181 220 220 144 189 170 158 165 257 168 328 354 131 122 104 106 139 238 154 224 254 92 77 49 39 44 52 206 217 193 207 197
316 320 215 210 220 219 199 178 187 182 180 184 177 157 172 180 199 208 177 219 177 121 351 152 117 179 301 75 10 125 151 174 177 188 211 149 151 108 301 65 57 59 284 283 245 210 229
316 317 243 212 220 216 185 181 186 185 185 182 195 165 169 144 193 192 181 168 122 112 62 27 344 103 87 57 22 38 37 71 66 173 178 148 134 114 112 46 348 304 219 216 215 263 330
321 347 214 213 215 203 179 181 189 189 189 184 185 166 185 158 197 178 136 107 131 56 151 48 337 92 95 81 80 93 123 107 96 22 27 144 114 88 218 1 244 182 52 29 34 84 16
316 293 213 218 205 182 175 176 191 189 192 194 174 165 188 130 145 111 137 113 130 65 86 114 50 61 121 170 185 140 153 166 97 47 118 349 176 127 142 214 139 125 166 142 173 81 36
333 270 193 218 194 176 170 179 192 192 193 198 184 169 126 122 47 155 143 159 140 171 174 133 58 58 123 250 236 198 177 160 155 134 348 307 329 156 188 266 300 106 87 22 342 173 68
333 208 200 210 183 166 162 185 192 189 188 193 182 164 136 101 53 86 108 167 89 150 108 124 101 108 358 249 226 235 109 352 173 176 176 182 233 194 224 262 338 24 46 182 166 177 46
318 255 195 204 174 166 166 182 186 179 177 177 172 164 152 104 71 92 98 108 103 15 128 123 116 162 350 254 84 337 73 50 286 260 162 164 155 190 162 293 295 356 335 10 60 53 8
304 237 190 187 168 168 172 182 182 173 171 172 164 165 157 112 116 108 99 106 115 100 92 64 67 39 54 103 100 42 36 319 74 211 2 31 47 56 66 169 130 71 91 121 44 15 350